Fairfield, CA

7:24 PM PDT on July 22, 2017 (GMT -0700)
Travis Air Force Base

Weather History for KSUU - November, 2013

Change the Weather History Date:

Tuesday, November 12, 2013

  Actual Average Record
Temperature  
Mean Temperature 60 °F -  
Max Temperature 72 °F 63 °F 77 °F (1999)
Min Temperature 48 °F 44 °F 33 °F (2000)
Degree Days  
Heating Degree Days 5    
Growing Degree Days 10 (Base 50)    
Moisture  
Dew Point 43 °F    
Average Humidity 58    
Maximum Humidity 76    
Minimum Humidity 32    
Precipitation  
Precipitation 0.00 in - - ()
Sea Level Pressure  
Sea Level Pressure 30.23 in    
Wind  
Wind Speed 4 mph (West)    
Max Wind Speed 13 mph    
Max Gust Speed -    
Visibility 10 miles    
Events      
Averages and records for this station are not official NWS values.
T = Trace of Precipitation, MM = Missing Value Source: NWS Daily Summary

Daily Weather History Graph

Daily Weather History Graph

Search for Another Location

Airport or City:

Trip Planner

Search our weather history database for the weather conditions in past years. The results will help you decide how hot, cold, wet, or windy it might be!

Date:

Astronomy

Nov. 12, 2013 Rise Set
Actual Time 6:46 AM PST 4:57 PM PST
Civil Twilight 6:18 AM PST 5:25 PM PST
Nautical Twilight 5:46 AM PST 5:57 PM PST
Astronomical Twilight 5:15 AM PST 6:28 PM PST
Moon 2:11 PM PST (11/12) 1:45 AM PST (11/12)
Length of Visible Light 11h 07m
Length of Day
10h 11m
Waxing Gibbous, 77% of the Moon is Illuminated
Nov 12
Waxing Gibbous
Nov 17
Full
Nov 25
Last Quarter
Dec 2
New
Dec 9
First Quarter

Hourly Weather History & Observations

Time (PST) Temp. Dew Point Humidity Pressure Visibility Wind Dir Wind Speed Gust Speed Precip Events Conditions
12:58 AM 56.3 °F 47.8 °F 73% 30.15 in 10.0 mi South 3.5 mph - N/A   Mostly Cloudy
1:58 AM 55.0 °F 47.1 °F 75% 30.18 in 10.0 mi WSW 5.8 mph - N/A   Mostly Cloudy
2:58 AM 54.0 °F 45.9 °F 74% 30.20 in 10.0 mi NNW 3.5 mph - N/A   Clear
3:58 AM 52.5 °F 45.1 °F 76% 30.19 in 10.0 mi WSW 5.8 mph - N/A   Mostly Cloudy
4:58 AM 55.2 °F 46.6 °F 73% 30.22 in 10.0 mi West 3.5 mph - N/A   Scattered Clouds
5:58 AM 54.3 °F 46.4 °F 75% 30.23 in 4.0 mi East 2.3 mph - N/A   Haze
6:58 AM 52.3 °F 44.8 °F 75% 30.25 in 8.0 mi North 4.6 mph - N/A   Clear
7:58 AM 55.6 °F 44.1 °F 65% 30.24 in 10.0 mi NE 12.7 mph - N/A   Overcast
8:55 AM 57.2 °F 44.6 °F 63% 30.26 in 10.0 mi Variable 2.3 mph - N/A   Overcast
9:29 AM 59.0 °F 44.6 °F 59% 30.25 in 10.0 mi SW 3.5 mph - N/A   Mostly Cloudy
9:58 AM 63.9 °F 42.6 °F 46% 30.27 in 8.0 mi West 9.2 mph - N/A   Overcast
10:58 AM 66.6 °F 43.2 °F 43% 30.26 in 10.0 mi West 6.9 mph - N/A   Partly Cloudy
11:58 AM 68.2 °F 42.4 °F 39% 30.25 in 10.0 mi WSW 5.8 mph - N/A   Partly Cloudy
12:58 PM 70.7 °F 42.4 °F 36% 30.23 in 10.0 mi NW 2.3 mph - N/A   Partly Cloudy
1:58 PM 71.1 °F 41.7 °F 35% 30.22 in 10.0 mi Calm Calm - N/A   Clear
2:58 PM 71.6 °F 41.5 °F 34% 30.22 in 10.0 mi Calm Calm - N/A   Clear
3:58 PM 72.7 °F 41.0 °F 32% 30.21 in 10.0 mi North 2.3 mph - N/A   Clear
4:58 PM 69.4 °F 41.9 °F 37% 30.20 in 10.0 mi North 1.2 mph - N/A   Clear
5:58 PM 61.9 °F 40.5 °F 45% 30.21 in 10.0 mi SW 2.3 mph - N/A   Clear
6:58 PM 55.4 °F 40.6 °F 58% 30.23 in 10.0 mi SSW 1.2 mph - N/A   Clear
7:58 PM 56.1 °F 43.7 °F 63% 30.23 in 10.0 mi SSW 4.6 mph - N/A   Clear
8:58 PM 48.9 °F 38.8 °F 68% 30.24 in 10.0 mi WSW 5.8 mph - N/A   Clear
9:58 PM 50.2 °F 40.8 °F 70% 30.24 in 10.0 mi NW 3.5 mph - N/A   Clear
10:58 PM 51.6 °F 41.7 °F 69% 30.24 in 10.0 mi SW 5.8 mph - N/A   Clear
11:58 PM 48.6 °F 41.4 °F 76% 30.25 in 10.0 mi SSW 3.5 mph - N/A   Clear